Regional Weather Roundup
Issued by NWS Goodland, KS

Home | Current Version | Previous Version | Graphics & Text | Print | Product List | Glossary On
Versions: 1 2 3 4 5 6 7 8 9 10 11 12 13 14 15 16 17 18 19 20 21 22 23 24 25 26 27 28 29 30 31 32 33 34 35 36 37 38 39 40 41 42 43 44 45 46 47 48 49 50
000
ASUS43 KGLD 240559
RWRGLD

GOODLAND FORECAST AREA HOURLY WEATHER ROUNDUP
NATIONAL WEATHER SERVICE GOODLAND KS
1200 AM MDT THU JUL 24 2014

...OFFICIAL OBSERVATIONS...

CITY           SKY/WX    TMP DP  RH WIND       PRES   REMARKS
GOODLAND KS    CLEAR     70  65  84 SE12      30.19F
HILL CITY KS   CLEAR     68  63  84 E3        30.16S
IMPERIAL NEB   CLEAR     68  63  84 SE14      30.16S
MCCOOK NEB     CLEAR     69  63  81 SE8       30.16R
AKRON CO       CLEAR     74  61  63 S17G25    30.20S
BURLINGTON CO  PTCLDY    74  65  73 SE14      30.21S
LIMON CO       PTCLDY    69  63  81 SE9       30.26F
$$

...UNOFFICIAL OBSERVATIONS...

CITY           SKY/WX    TMP DP  RH WIND       PRES   REMARKS
COLBY KS       CLEAR     72  66  83 SE14      30.19S
GOVE KS          N/A     73  32  22 MISG        N/A
NORTON KS      CLEAR     68  57  68 E8        30.14F
SHARON SPRINGS   N/A     73  68  84 S9          N/A
WAKEENEY KS      N/A     71  61  71 MISG        N/A
KIT CARSON CO    N/A     76  65  67 N13G20      N/A
YUMA CO          N/A     70  63  78 CALM        N/A
$$



USA.gov is the U.S. government's official web portal to all federal, state and local government web resources and services.